www.pogodaiklimat.ru
ПОГОДА в Флагстаффе
Время
и дата
12:57 29.11
13:57 29.11
14:57 29.11
15:57 29.11
16:57 29.11
17:57 29.11
18:57 29.11
19:57 29.11
20:57 29.11
21:57 29.11
22:57 29.11
23:57 29.11
00:57 30.11
01:57 30.11
02:57 30.11
03:57 30.11
04:57 30.11
05:57 30.11
06:57 30.11
07:57 30.11
08:57 30.11
09:57 30.11
10:57 30.11
11:57 30.11
12:57 30.11
13:57 30.11
14:57 30.11
15:57 30.11
16:57 30.12
17:57 30.11
18:57 30.11
19:57 30.11
20:57 30.11
21:57 30.11
22:57 30.11
23:57 30.11
00:57 01.12
01:57 01.12
02:57 01.12
03:57 01.12
04:57 01.12
05:57 01.12
06:57 01.12
07:57 01.12
08:57 01.12
09:57 01.12
10:57 01.12
11:57 01.12
Ветер
(напр.,м/с)
Видим. Явления Облачность Т
(С)
Тd
(С)
f
(%)
Тe
(С)
Тes
(С)
Комфортность P
(гПа)
Po
(гПа)
Тmin
(С)
Tmax
(С)
R
(мм)
R24
(мм)
S
(см)
ЮЗ 5 16 км ясно +7.8 -5.0 40 +5 +8 1010.9 782.6
нст 3
{10}
16 км ясно +8.3 -6.7 34 +6 +12 1011.1 782.6
ЮЗ 4
{8}
16 км ясно +7.8 -5.0 40 +5 +9 1012.1 783.1
ЮЗ 7 16 км ясно +6.7 -3.9 47 +2 +3 1012.9 783.6
ЮЗ 4 16 км ясно +3.9 -3.9 57 0 +1 1014.5 784.2 +3.9 +8.3
ЮЗ 2 16 км ясно +1.7 -4.4 64 -1 -1 1016.4 784.7
штиль 0 16 км ясно -1.7 -5.6 75 -3 -3 1018.3 785.2
штиль 0 16 км ясно -3.3 -6.7 77 -4 -4 1019.3 785.7
штиль 0 16 км ясно -3.9 -7.2 78 -5 -5 1019.2 786.0
штиль 0 16 км ясно -5.6 -8.3 81 -6 -6 1019.5 786.2
штиль 0 16 км ясно -6.1 -8.9 81 -7 -7 1019.1 786.5 -6.7 +3.9
штиль 0 16 км ясно -7.2 -9.4 84 -8 -8 1019.2 786.5
штиль 0 16 км ясно -8.3 -10.0 88 -9 -9 1019.0 786.5
штиль 0 16 км ясно -8.3 -10.6 83 -9 -9 1019.1 786.8
штиль 0 16 км ясно -8.9 -11.1 84 -9 -9 1019.2 786.5
штиль 0 16 км ясно -9.4 -11.7 83 -10 -10 1019.5 786.5
штиль 0 16 км ясно -10.0 -12.8 80 -10 -10 1020.5 786.5 -10.0 -6.1
штиль 0 16 км ясно -10.0 -12.8 80 -10 -10 1020.9 786.2
штиль 0 16 км ясно -10.0 -12.8 80 -10 -10 1022.3 786.5
штиль 0 16 км ясно -7.8 -10.6 80 -8 -8 1022.4 786.5
штиль 0 16 км ясно 0.0 -4.4 72 -1 -1 1020.3 786.8
ЮЗ 4 16 км ясно +5.6 -3.3 53 +2 +3 1019.5 787.0
Ю 7
{10}
16 км ясно +7.8 -2.8 47 +4 +5 1018.5 786.8 -10.0 +7.8
ЮЗ 8 16 км ясно +7.2 -3.3 47 +3 +4 1018.5 786.2
ЮЗ 9
{12}
16 км ясно +8.3 -5.6 37 +4 +5 1017.4 785.5
ЮЗ 7
{11}
16 км ясно +8.3 -6.1 35 +5 +7 1016.8 784.9
ЮЗ 8
{11}
16 км ясно +8.3 -6.7 34 +4 +5 1016.5 784.7
ЮЗ 9
{11}
16 км ясно +7.8 -6.7 35 +3 +4 1016.9 784.9
ЮЗ 5 16 км ясно +6.1 -5.6 43 +3 +3 1017.7 784.9 +6.1 +8.9
штиль 0 16 км ясно +1.7 -6.1 56 +1 +1 1019.4 785.2
штиль 0 16 км ясно -1.1 -6.7 66 -2 -2 1020.5 785.2
штиль 0 16 км ясно -2.8 -7.2 72 -4 -4 1020.3 785.5
штиль 0 16 км ясно -3.3 -8.3 68 -4 -4 1018.6 785.5
штиль 0 16 км ясно -3.9 -8.3 71 -5 -5 1017.1 785.7
штиль 0 16 км ясно -4.4 -7.8 77 -5 -5 1016.5 785.5 -5.0 +6.1
штиль 0 16 км ясно -5.0 -7.8 81 -6 -6 1016.6 785.2
штиль 0 16 км ясно -5.0 -7.8 81 -6 -6 1015.8 784.9
штиль 0 16 км ясно -5.0 -7.8 81 -6 -6 1015.6 784.9
ЮЗ 2 16 км ясно -5.6 -7.8 84 -10 -10 1015.5 784.9
штиль 0 16 км ясно -5.6 -7.8 84 -6 -6 1015.9 784.7
штиль 0 16 км ясно -5.0 -7.2 85 -6 -6 1015.7 784.4 -6.1 -4.4
штиль 0 16 км ясно -4.4 -6.1 88 -5 -5 1016.8 784.7
штиль 0 16 км ясно -3.3 -6.1 81 -4 -4 1017.7 784.7
ЮЗ 3 16 км ясно 0.0 -3.3 78 -5 -5 1017.4 784.9
ЮЗ 7 16 км ясно +5.0 -2.2 60 0 0 1016.7 785.5
ЮЗ 7 16 км ясно +7.2 -3.9 45 +3 +4 1016.9 785.7
ЮЗ 9
{12}
16 км ясно +6.7 -5.6 41 +2 +2 1016.8 785.5 -5.6 +7.2
ЮЗ 11
{14}
16 км ясно +8.3 -6.7 34 +4 +4 1015.9 784.9
Местоположение метеостанции Flagstaff Pulliam Airport: широта 35.1403 долгота -111.6722 высота над уровнем моря 2137 м.
В архиве по умолчанию представлена погода в Флагстаффе за последние 1-2 суток. Обновление информации о фактической погоде в базе происходит ежечасно! Архивные данные за месяц целиком и за предыдущие месяцы Вы можете получить, выбрав интересующий диапазон дат из раскрывающегося списка и нажав кнопку "Ввод!".
Внимание! Архив погоды МЕТАР в базе сайта по станциям, не включенным в климатический монитор, хранится не более 60 дней. Нет смысла пытаться выбрать более раннюю дату.
*Определитесь, кто Вы:
Внимание! Время в таблицах - местное (без учета летнего времени). Для получения всемирного времени необходимо вычесть поправку, которая равна -7 ч.
Смотрите также архив погоды в соседних городах и на ближайших метеорологических станциях:
Партнеры нашего сайта:      
Пояснения к столбцам:
  • Ветер - указаны скорость ветра в м/с - средняя за 10 мин, порывы в срок и между сроками (в фигурных скобках) и направление, откуда дует ветер: С - северный,
  • СВ - северо-восточный, В - восточный, ЮВ - юго-восточный, Ю - южный, ЮЗ - юго-западный, З - западный, СЗ - северо-западный.
  • Видимость - горизонтальная дальность видимости в метрах или километрах. При видимости от 1 до 10 км при отсутствии осадков обычно наблюдается дымка, при ухудшении видимости до 1 км и менее - туман. В сухую погоду видимость может ухудшаться дымом, пылью или мглою.
  • Явления - указаны атмосферные явления, наблюдавшиеся в срок или в последний час перед сроком; фигурными скобками обозначены явления, наблюдавшиеся между сроками (за 1-3 часа до срока); квадратными скобками обозначены град или гололедные отложения с указанием их диаметра в мм.
  • Облачность - указаны через наклонную черту общая и нижняя облачность в баллах и высота нижней границы облаков в метрах; квадратными скобками обозначены формы облаков: Ci - перистые, Cs - перисто-слоистые, Cc - перисто-кучевые, Ac - высококучевые, As - высокослоистые, Sc - слоисто-кучевые, Ns - слоисто-дождевые, Cu - кучевые, Cb - кучево-дождевые. Подробнее классификацию облаков см. в Атласе облаков (PDF).
  • T - Температура воздуха - температура, измеренная на высоте 2 м над землей.
  • Td - Температура точки росы - температура, при понижении до которой содержащийся в воздухе водяной пар достигнет насыщения.
  • f - Относительная влажность воздуха - влажноcть воздуха, измеренная на высоте 2 м над землей.
  • Te - Эффективная температура - температура, которую ощущает одетый по сезону человек в тени. Характеристика душности погоды. При расчете учитывается влияние влажности воздуха и скорости ветра на теплоощущения человека.
  • Tes - Эффективная температура на солнце - температура, которую ощущает человек, с поправкой на солнечный нагрев. Характеристика знойности погоды. Зависит от высоты солнца над горизонтом, облачности и скорости ветра. Ночью, в пасмурную погоду, а также при ветре 12 м/с и более поправка равна нулю.
  • P - Атмосферное давление - приведенное к уровню моря атмосферное давление.
  • Po - Атмосферное давление - измеренное на уровне метеостанции атмосферное давление.
  • Tmin - Минимальная температура - минимум температуры воздуха на высоте 2 м над землей.
  • Tmax - Максимальная температура - максимум температуры воздуха на высоте 2 м над землей.
  • R - Количество осадков - Количество выпавших осадков за период времени, мм. При наведении курсора мыши на число - период времени, за который выпало указанное количество осадков.
  • R24 - Количество осадков - Количество выпавших осадков за 24 часа, мм.
  • S - Снежный покров - Высота снежного покрова, см. При наведении курсора мыши на число - состояние снежного покрова и степень покрытия местности в баллах.